DECAYED

STARLINK-2056, 47665 (Decayed)

Orbit data source: Space-Track

STARLINK-2056, 47665 was a payload satellite owned by SpaceX/Seattle (US) in LEO that was launched on Tue, 16 Feb 2021 UTC via an FALCON 9 launch vehicle from the Air Force Eastern Test Range (AFETR). Payload-class satellites include a variety of spacecraft equipped with specific instruments for various scientific and technological missions. These include communications satellites like Starlink; space stations such as the ISS; scientific satellites like the Hubble; Earth observation satellites from companies like Planet Labs, Umbra, and HawkEye 360; GPS; miniature CubeSats for education and research; and military/defense satellites.

Not visible in the next 10 days
Identifier
47665, 2021-012AX
Orbit
Decayed
Country
Flag of USUS
Related business
Manufacturer
SpaceX/Seattle
Mission
Decayed Commercial Communications
Bus & Motor
STARLINK, Unknown motor
Mass
260 kg wet, ~248 kg dry
Launch date (UTC)
2021-02-16 (5 years ago)
Launch vehicle
FALCON 9
Launch site
Air Force Eastern Test Range (AFETR)
Object type
Payload
Rocket body
Debris
Shape & HBR
Box + 1 Pan, 10.1 m
Radar Cross Section
13.562 m², Large (>1 m²)

Expand to show TLE details & history
Last TLE update: 9 months ago

TLE from 9 months ago
0 STARLINK-2056
1 47665U 21012AX  25062.89214405  .16084610  12436-4  94194-3 0  9998
2 47665  53.0358 226.9749 0004863 288.6888 192.0279 16.41718370224479
Epoch: 2025-03-03T21:24Z
TLE epoch observation values (Epoch: 2025-03-03T21:24:41.245Z)
Latitude
43.53712°
Longitude
-121.41497°
Altitude
168.659 km
Speed
7.809 km/s
True Right ascension
00h 06m 38s
True Declination
43° 20' 60"
Sunlit
Object was in daylight at epoch
Visualization orbit readout
Latitude
Unknown
Longitude
Unknown
Altitude
Unknown
Speed
Unknown
Apparent Right ascension
Unknown
Apparent Declination
Unknown
Sunlit
N/A
Visualization observer readout
Local Sidereal Time
01:24:00
Azimuth
Unknown
Elevation
Unknown
Doppler factor
Unknown
Orbital elements
Apogee altitude
164.705 km
Perigee altitude
158.345 km
Semi-major axis
6,539.662 km
Eccentricity
0.00049
Inclination
53.0358°
RAAN
226.9749°
Arg. of periapsis
288.6888°
True anomaly
192.01629°
Mean anomaly
192.0279°
Eccentric anomaly
192.0221°
Mean motion
4.10403 °/min
Orbital period
87.72 mins
BSTAR
0.00094194
Loading maneuver chart data...
Computing Atmospheric mass density...

Documentation

Showing up to 5 results
|